Location: Laguna de Tae�a
(40.7089°N, 4.6308°W)
Time: 05:08:02
(UTC+00:00)

Daily predictions for brighter satellites

Satellite Brightness Start Highest point End
(mag) Time Altitude Azimuth Time Altitude Azimuth Time Altitude Azimuth
SL-16 R/B 3.8 00:09:25 10° N 00:13:48 28° NE 00:13:48 28° NE
Cosmos 2297 Rocket 3.4 00:28:54 38° NNE 00:28:54 38° NNE 00:32:21 10° NNE
Cosmos 2344 4.5 00:23:46 10° NNW 00:33:39 78° NE 00:38:10 47° SE
Cosmos 2219 4.4 00:41:47 39° N 00:41:47 39° N 00:45:30 10° NNE
Cosmos 2237 Rocket 3.7 00:38:21 10° NNW 00:41:11 30° NW 00:41:11 30° NW
CZ-2D R/B 3.8 01:04:35 10° NE 01:08:00 26° ENE 01:08:00 26° ENE
SL-16 R/B 3.7 01:09:26 34° E 01:10:17 36° ENE 01:15:52 10° N
Cosmos 2227 Rocket 3.4 01:18:31 35° NNW 01:18:31 35° NNW 01:22:39 10° N
Cosmos 2279 Rocket 4.3 01:29:43 63° N 01:29:43 63° N 01:34:51 10° N
Resurs 1-4 Rocket 3.0 01:37:39 10° NNE 01:41:36 45° NE 01:41:36 45° NE
SJ 16-02 3.5 01:46:52 23° NNW 01:46:52 23° NNW 01:48:48 10° N
Cosmos 2098 Rocket 4.3 01:40:31 10° N 01:46:18 58° E 01:46:32 58° E
NOSS 3-1 (C) 3.8 01:48:09 55° NNW 01:48:09 55° NNW 01:53:32 10° NNE
Cosmos 2263 Rocket 2.7 01:56:40 54° ENE 01:56:40 54° ENE 02:01:14 10° NNE
SL-16 R/B 3.8 01:53:12 10° NW 01:55:38 24° NW 01:55:38 24° NW
Cosmos 724 4.4 01:58:17 10° NNW 02:03:52 75° N 02:03:52 75° N
Cosmos 1937 Rocket 4.1 02:07:18 51° NNW 02:07:18 51° NNW 02:11:30 10° NNE
Cosmos 1455 Rocket 4.5 02:12:38 34° N 02:12:38 34° N 02:15:15 10° N
Cosmos 2297 Rocket 4.4 02:10:42 13° WNW 02:11:37 14° NW 02:14:26 10° NNW
ATLAS CENTAUR R/B 3.3 02:13:46 25° ENE 02:13:46 25° ENE 02:15:45 10° NE
Cosmos 1726 4.4 02:14:19 24° NE 02:14:19 24° NE 02:15:58 10° NNE
ADEOS II 2.9 02:09:26 10° NNE 02:14:26 43° E 02:14:31 43° E
CZ-4B R/B 4.0 02:12:42 10° NNE 02:16:40 52° ENE 02:16:40 52° ENE
Cosmos 2266 Rocket 3.9 02:16:45 10° N 02:22:57 75° W 02:22:57 75° W
USA 229 DEB 4.2 02:24:11 41° WNW 02:25:13 44° NW 02:31:44 10° NNE
USA 229 4.2 02:24:18 41° WNW 02:25:19 44° NW 02:31:50 10° NNE
Meteor 2-10 4.1 02:27:12 77° ESE 02:27:16 78° E 02:32:58 10° NNE
Cosmos 2084 4.4 02:28:47 47° NE 02:28:47 47° NE 02:32:02 10° NE
GEOS 3 Rocket 3.7 02:23:03 10° NNE 02:28:24 68° NW 02:28:24 68° NW
Meteor 1-21 Rocket 4.5 02:25:05 10° N 02:30:35 62° ENE 02:31:40 51° SE
CBERS-1 4.1 02:26:08 10° NNE 02:31:10 70° E 02:31:10 70° E
ATLAS 3B CENTAUR R/B 4.5 02:13:10 10° W 02:31:52 43° SSW 02:41:09 10° SE
ARIANE 5 R/B 3.8 02:30:01 10° NNE 02:34:48 35° E 02:36:11 30° SE
NOSS 3-1 (A) 3.8 02:36:02 44° WNW 02:36:33 45° NW 02:42:35 10° NNE
SL-19 R/B 4.5 02:37:46 58° S 02:39:11 83° WSW 02:45:22 10° NNW
Cosmos 1603 3.6 02:33:35 10° NNW 02:39:05 75° W 02:39:05 75° W
Cosmos 2150 Rocket 3.9 02:42:28 82° SE 02:42:33 82° ESE 02:47:48 10° NNE
CZ-2D R/B 2.9 02:44:20 10° N 02:49:18 38° WNW 02:49:18 38° WNW
Cosmos 1703 4.1 02:48:36 10° N 02:52:26 45° E 02:52:42 45° E
SL-16 R/B 3.2 02:54:31 36° W 02:54:31 36° W 02:59:33 10° NNW
Cosmos 1125 Rocket 3.6 02:54:00 58° SSE 02:54:49 68° ESE 03:00:04 10° NNE
Cosmos 1943 3.1 02:52:13 10° NNW 02:57:46 64° WSW 02:57:52 64° WSW
Cosmos 1953 3.2 02:59:36 40° NNW 02:59:36 40° NNW 03:02:32 10° N
Nadezhda 2 Rocket 4.3 02:54:23 10° N 03:00:35 86° W 03:02:51 42° S
USA 215 3.5 02:55:12 10° NE 03:01:40 60° SE 03:03:50 41° S
IRS-1C 4.1 02:57:14 10° NNE 03:02:36 84° ESE 03:03:51 55° S
IRS-1D 3.7 03:00:42 10° N 03:05:41 54° WNW 03:06:07 52° W
Cosmos 1328 4.3 03:02:20 10° N 03:06:18 57° E 03:07:02 48° SE
OAO 2 Rocket 4.0 03:10:53 40° SSE 03:10:53 40° SSE 03:15:39 10° ESE
CZ-2D R/B 4.1 03:08:09 10° NNE 03:12:00 48° E 03:12:51 40° SE
Meteor 2-8 Rocket 4.4 03:15:17 32° S 03:18:17 83° E 03:24:25 10° N
Cosmos 1606 Rocket 3.6 03:19:24 47° S 03:20:38 77° E 03:25:06 10° N
Hubble Space Telescope 3.3 03:22:46 11° SE 03:22:46 11° SE 03:23:01 10° SE
Atlas Centaur 2 3.2 03:20:39 32° S 03:21:31 33° S 03:28:00 10° ESE
Resurs 1-4 Rocket 3.7 03:18:38 10° NNW 03:22:12 19° WNW 03:22:40 19° WNW
Cosmos 1602 Rocket 4.4 03:18:21 10° NNW 03:21:32 34° WNW 03:21:32 34° WNW
NOSS 2-2 (E) 3.3 03:22:45 57° SE 03:22:58 59° ESE 03:26:42 10° NE
NOSS 2-2 (D) 3.7 03:23:29 42° SE 03:23:53 44° ESE 03:27:26 10° NE
Meteor 2-16 Rocket 4.4 03:21:17 10° NNW 03:27:23 65° W 03:30:36 29° SSW
IDEFIX/ARIANE 42P 2.6 03:26:02 10° NNE 03:31:15 78° ESE 03:34:08 27° S
Cosmos 1908 3.7 03:31:23 45° WNW 03:31:23 45° WNW 03:35:03 10° N
Cosmos 1417 Rocket 4.4 03:29:11 29° SSW 03:32:33 79° W 03:38:49 10° N
Cosmos 1726 Rocket 3.5 03:33:33 37° S 03:35:20 87° E 03:39:49 10° N
MSX 4.2 03:31:28 10° NNE 03:37:12 62° ESE 03:42:02 15° S
Cosmos 2228 3.0 03:36:23 45° SW 03:37:34 67° W 03:41:58 10° N
Cosmos 1048 Rocket 4.1 03:34:20 10° NNW 03:39:18 49° WSW 03:41:28 30° SSW
Cosmos 2263 Rocket 3.8 03:38:22 17° WNW 03:40:07 20° NW 03:44:09 10° N
Cosmos 1844 3.8 03:37:25 27° SSW 03:40:42 79° ESE 03:46:29 10° NNE
Meteor 1-28 Rocket 3.5 03:41:31 43° W 03:41:31 43° W 03:45:05 10° NNW
SL-08 R/B 3.7 03:44:25 33° SSW 03:46:07 45° W 03:50:52 10° NNW
Cosmos 1356 Rocket 3.3 03:46:41 38° SSW 03:48:09 66° W 03:52:15 10° N
Cosmos 1386 Rocket 4.3 03:42:20 10° N 03:48:21 87° W 03:54:23 10° S
CZ-2C R/B 2.6 03:46:54 10° NNE 03:50:42 86° ESE 03:52:32 29° S
ATLAS CENTAUR R/B 3.0 03:49:57 19° WNW 03:50:59 20° NW 03:53:58 10° N
Cosmos 1300 2.6 03:49:36 31° S 03:51:21 87° WNW 03:55:11 10° N
ADEOS II 3.4 03:49:43 10° NNW 03:53:51 24° WNW 03:55:27 21° W
ERS-2 2.9 03:51:24 10° SSE 03:54:56 53° ENE 03:58:31 10° N
Spot 4 Rocket 4.1 03:50:26 10° N 03:55:31 60° WNW 03:58:31 24° SW
Cosmos 1900 4.3 03:52:26 10° NW 03:57:33 66° WSW 04:02:37 10° SSE
CZ-4C R/B 2.9 03:54:42 11° SSE 03:57:47 82° ENE 04:01:10 10° N
Cosmos 1269 Rocket 4.0 03:56:07 10° NNW 04:01:27 88° WSW 04:06:45 10° SSE
Cosmos 2278 Rocket 4.0 03:57:10 10° SSE 04:01:55 28° ESE 04:06:39 10° NE
Cosmos 1844 Rocket 2.9 03:59:23 25° SW 04:02:32 56° WNW 04:08:01 10° NNE
Cosmos 1553 Rocket 4.5 04:00:09 24° SW 04:03:18 40° WNW 04:09:02 10° N
CSL-04 DEB 4.2 04:01:06 10° S 04:04:59 67° WSW 04:08:56 10° NNW
COSMOS 2441 4.3 04:01:11 10° N 04:06:01 83° WNW 04:10:14 14° SSW
NOSS 2-2 (C) 3.3 04:05:43 30° WSW 04:07:14 55° NW 04:10:59 10° NNE
Lacrosse 5 rocket 3.1 04:04:16 11° S 04:07:57 30° SE 04:11:58 10° ENE
Meteor 1-11 4.5 04:04:35 10° NNW 04:10:02 47° W 04:15:24 10° SSW
Cosmos 883 Rocket 4.5 04:03:52 10° S 04:10:07 82° W 04:16:27 10° N
ARIANE 5 R/B 3.6 04:09:17 10° N 04:13:46 29° WNW 04:16:31 18° WSW
USA 281 4.0 04:07:59 10° NNE 04:14:21 50° ESE 04:20:39 10° S
SeaSat 1 3.1 04:12:18 10° NE 04:17:09 54° ESE 04:21:57 10° S
Cosmos 1745 Rocket 4.2 04:11:26 10° NNW 04:17:22 47° W 04:23:14 10° SSW
Delta 2 Rocket 4.1 04:17:04 22° SW 04:17:59 25° SSW 04:21:02 10° SE
Cosmos 2058 Rocket 3.5 04:18:49 16° SSW 04:22:03 45° WNW 04:26:19 10° N
H-2A R/B 2.1 04:18:18 10° S 04:22:16 50° W 04:26:16 10° NNW
Cosmos 1867 4.4 04:19:21 10° NNW 04:24:44 54° NE 04:30:03 10° SE
Landsat 5 3.8 04:26:58 10° S 04:30:44 42° W 04:34:41 10° NNW
BREEZE-M TANK 4.3 04:27:14 10° WNW 04:31:37 52° SSW 04:48:40 10° SE
Cosmos 2058 3.4 04:27:29 10° N 04:31:39 65° E 04:35:50 10° SSE
DEBRIS 3.6 04:30:20 11° WNW 04:31:58 20° NNW 04:33:43 10° NE
CZ-2C R/B 2.2 04:29:02 10° NNE 04:33:40 84° WNW 04:38:23 10° SSW
Cosmos 1408 3.8 04:30:24 10° N 04:34:00 45° E 04:37:32 10° SSE
CZ-4B R/B 1.9 04:33:08 10° SSE 04:36:19 60° ENE 04:39:25 10° N
CZ-3B R/B 3.6 04:37:44 10° SSE 04:38:58 13° ESE 04:40:37 10° E
Cosmos 1892 2.6 04:37:28 10° N 04:41:20 82° W 04:45:07 10° S
In-Cosmos 22 Rocket 4.3 04:36:03 10° NNW 04:41:52 71° W 04:47:35 10° S
USA 215 3.9 04:38:22 10° NE 04:44:31 45° NNW 04:50:39 10° W
Cosmos 1340 4.4 04:43:21 10° N 04:46:52 37° ENE 04:50:23 10° SE
ATLAS 2AS CENTAUR R/B 4.0 04:42:01 10° S 04:49:32 49° ESE 04:57:09 10° NE
Cosmos-2242 4.4 04:46:14 10° SSE 04:50:21 43° E 04:54:31 10° NNE
Meteor 1-31 Rocket 3.8 04:46:58 10° NNE 04:50:42 48° E 04:54:23 10° S
FENGYUN 3A 4.4 04:46:08 10° NNE 04:51:26 56° E 04:56:41 10° S
Cosmos 1484 Rocket 3.4 04:48:46 10° NNE 04:52:26 56° E 04:56:07 10° S
ALOS 3.1 04:48:34 10° NNE 04:53:10 55° E 04:57:44 10° S
OAO 2 Rocket 3.9 04:50:08 10° WSW 04:55:09 44° S 05:00:07 10° ESE
PAYLOAD A 4.5 04:51:48 10° N 04:56:47 44° WNW 05:01:34 10° SW
Cosmos 1709 Rocket 4.4 04:51:25 10° NNW 04:57:06 41° W 05:02:44 10° SSW
